{"data":{"norad_id":62367,"intl_designator":"2024-245C","name":"TIANQI-35","alt_names":[],"object_type":"PAYLOAD","status":"ACTIVE","operator":null,"country":"PRC","launch_date":"2024-12-19","launch_site_code":"YSLA","launch_vehicle":null,"mission":null,"orbit_class":"UNKNOWN","rcs_meters":null,"size_class":null,"mass_kg":null,"dimensions":null,"purposes":[],"wikipedia_slug":null,"has_3d_model":false,"image_url":null,"decayed_at":null,"tle_current":{"epoch":"2026-05-25T03:19:14.234880Z","epoch_age_seconds":73168,"freshness":"FRESH","line1":"1 62367U 24245C   26145.13835920  .00000040  00000+0  11559-3 0  9997","line2":"2 62367  44.9855  64.2723 0010521 260.4254  99.5390 13.99183976 73110","mean_motion":13.99183976,"eccentricity":0.0010521,"inclination_deg":44.9855,"raan_deg":64.2723,"arg_perigee_deg":260.4254,"mean_anomaly_deg":99.539,"bstar":0.00011559,"rev_number":7311,"period_min":102.91713060613,"perigee_km":888.96848789217,"apogee_km":904.2760363315,"semimajor_km":7274.7592621118,"source":"CELESTRAK","updated_at":"2026-05-25T13:38:02.942337Z"}}}